AC 10 PROBE (FULLER) (45528 NORAD) Tracking and Keplerian Element Data

This shows tracking and keplerian element data for the satellite.

Feedback or suggestion? Click here.




ElementValue
Catalog45528
NameAC 10 PROBE (FULLER)
Epoch Orbit511
Epoch Day145.54102899
Epoch Year2020
RAAN148.2404
Inclination51.6352
Eccentricity0.0008096
Argument of Perigee248.1687
Mean Anonmoly112.2405
Mean Motion15.33228343
Decay Rate0.00045689
L11 45528U 19022M 20145.54102899 .00045689 00000-0 14035-2 0 9995
L22 45528 51.6352 148.2404 0008096 248.1687 112.2405 15.33228343 5116

Live tracking and technical data element details for AC 10 PROBE (FULLER) (NORAD 45528). AC 10 PROBE (FULLER) can be tracked NOW for your location showing map with azimuth and elevation plus other details from your city location.

Track the satellite on the map from your city or location and see movement details for azimuth, elevation, latitude, longitude, range, height, and movement on the map or in text.







IsCatalogInMostPopularTable: catalog: 45528, numindb: 8
Update: records affected: 1



GetName: 45528 AC 10 PROBE (FULLER)

Hit Count: updated at: Tue, 26 May 2020 04:32:02 GMT